カタログに戻る

THOR ALTAIR DEB

運用中PO
NORAD 2177·DEBRIS·🇺🇸 United States

打ち上げ Mar 31, 1966 から Vandenberg Space Force Base

Loading…

次のパス (今後24時間)

TLE

最新Source: Space-Track

元期: Sep 14, 2026, 11:37 UTC

1 02177U 66026D   26257.48458102  .00002755  00000-0  31627-3 0  9992
2 02177  98.9801 259.9313 0127111  69.0507 292.4251 14.81181445176068

AllMySatでTHOR ALTAIR DEBをリアルタイム追跡

Download on the App Store